Regional Weather Roundup
Issued by NWS

Current Version |  Previous Version |  Text Only |  Print | Product List |  Glossary On
Versions: 1 2 3 4 5 6 7 8 9 10 11 12 13 14 15 16 17 18 19 20 21 22 23 24 25 26 27 28 29 30 31 32 33 34 35 36 37 38 39 40 41 42 43 44 45 46 47 48 49 50
251
ASUS45 KABQ 250610
RWRNM
NEW MEXICO REGIONAL WEATHER ROUNDUP
NATIONAL WEATHER SERVICE ALBUQUERQUE NM
1200 AM MDT TUE JUN 25 2024

NOTE: "FAIR" MEANS FEW OR NO CLOUDS BELOW 12,000 FEET AGL WITH NO
       SIGNIFICANT WEATHER OR OBSTRUCTIONS TO VISION.

      THIS PRODUCT IS RELEASED AS TWO VERSIONS.  ONE VERSION NEAR
      THE TOP OF THE HOUR CONTAINING PRELIMINARY DATA FROM ALBUQUERQUE
      AND OTHER STATIONS.  A FINAL VERSION WITH ADDITIONAL DATA IS
      ISSUED ABOUT 10 MINUTES AFTER THE HOUR.

NMZ201-203-204-210>218-250700-
NORTHWEST PLATEAU/NORTHCENTRAL MOUNTAINS

CITY           SKY/WX    TMP DP  RH WIND       PRES   REMARKS
FARMINGTON     FAIR      75  44  33 CALM      30.08R
6HR MIN TEMP:  73; 6HR MAX TEMP:  93;

SANTA FE         N/A     70  59  68 CALM      30.19R
6HR MIN TEMP:  70; 6HR MAX TEMP:  91; 6HR PCP:  0.32;

TAOS           FAIR      64  48  56 NE7       30.28R
ANGEL FIRE     FAIR      49  42  78 W3        30.38R

$$
NMZ202-205>209-241-402-403-250700-
WESTCENTRAL MOUNTAINS/SOUTHWEST MOUNTAINS

CITY           SKY/WX    TMP DP  RH WIND       PRES   REMARKS
GALLUP         FAIR      69  57  65 E3        30.22S
6HR MIN TEMP:  68; 6HR MAX TEMP:  90; 6HR PCP:  0.03;

GRANTS         FAIR      64  54  69 S5        30.26R
SILVER CITY    FAIR      77  53  42 NW9       30.13R

$$
NMZ407-409-411-412-250700-
SOUTHERN DESERTS

CITY           SKY/WX    TMP DP  RH WIND       PRES   REMARKS
DEMING         FAIR      80  54  40 W8        30.02S
6HR MIN TEMP:  80; 6HR MAX TEMP: 101;

LAS CRUCES     FAIR      83  51  32 N7        30.02S
HOLLOMAN AFB   FAIR      82  53  37 NW10      30.01R
ALAMOGORDO     FAIR      81  50  34 E3        29.99S
T OR C         FAIR      77  56  48 NW5       30.06S
6HR MIN TEMP:  77; 6HR MAX TEMP:  81;


$$
NMZ219>223-250700-
CENTRAL VALLEYS/CENTRAL HIGHLANDS

CITY           SKY/WX    TMP DP  RH WIND       PRES   REMARKS
ALBUQUERQUE    MOCLDY    76  57  51 CALM      30.12S
6HR MIN TEMP:  76; 6HR MAX TEMP:  85; 6HR PCP:  0.20;

MORIARTY ARPT  CLOUDY    69  58  68 CALM      30.19S
6HR MIN TEMP:  69; 6HR MAX TEMP:  88; 6HR PCP:  0.26;

CLINES CORNERS NOT AVBL
BELEN          FAIR      73  56  55 CALM      30.12S
6HR MIN TEMP:  72; 6HR MAX TEMP:  78;

SOCORRO        FAIR      75  56  52 CALM      30.08S
6HR MIN TEMP:  75; 6HR MAX TEMP:  81;


$$
NMZ224>226-239-240-250700-
SOUTHCENTRAL MOUNTAINS

CITY           SKY/WX    TMP DP  RH WIND       PRES   REMARKS
RUIDOSO        FAIR      66  57  72 SW7       30.26S

$$
NMZ227>231-250700-
NORTHEAST HIGHLANDS/NORTHEAST PLAINS

CITY           SKY/WX    TMP DP  RH WIND       PRES   REMARKS
LAS VEGAS      FAIR      66  52  60 N5        30.20S
6HR MIN TEMP:  63; 6HR MAX TEMP:  79; 6HR PCP:  0.02;

RATON          MOCLDY    70  51  51 E5        30.17R
6HR MIN TEMP:  67; 6HR MAX TEMP:  91;

CLAYTON        FAIR      75  52  44 SW15G25   30.04S
6HR MIN TEMP:  75; 6HR MAX TEMP:  91; 6HR PCP: TRACE;


$$
NMZ232>237-250700-
EASTCENTRAL PLAINS

CITY           SKY/WX    TMP DP  RH WIND       PRES   REMARKS
SANTA ROSA     FAIR      78  59  52 CALM      30.04S
TUCUMCARI      FAIR      71  64  78 SE12      29.99F
6HR MIN TEMP:  71; 6HR MAX TEMP:  97; 6HR PCP:  0.04;

CANNON AFB     CLEAR     76  54  45 CALM      30.03R
6HR MIN TEMP:  76; 6HR MAX TEMP:  96;

CLOVIS AIRPORT FAIR      76  55  48 S9        30.04R

$$
NMZ028-029-033-238-250700-
SOUTHEAST PLAINS

CITY           SKY/WX    TMP DP  RH WIND       PRES   REMARKS
ROSWELL        FAIR      83  56  39 S6        29.96R
6HR MIN TEMP:  83; 6HR MAX TEMP: 100;

ARTESIA        FAIR      86  61  42 S17       29.98R
CARLSBAD       FAIR      86  63  45 S15       29.98R
6HR MIN TEMP:  86; 6HR MAX TEMP:  99;

HOBBS          FAIR      82  61  47 S20       29.99S


$$